Flag for Germany Weather past 2 weeks in Leipzig, Saxony, Germany

Now
59 °F

Fog.


Feels Like: 60 °F
Forecast: 52 / 67 °F
Wind: 3 mph from South

Location: Leipzig-Schkeuditz

Current Time: Oct 2, 2014 at 10:44:05 AM

Latest Report: Oct 2, 2014 at 10:20 AM


Visibility: 1 mi

Pressure: 30.39 "Hg

Humidity: 94%

Dew point: 57 °F

Location of LeipzigLocation

Historic Weather in Leipzig — Graph

°F

Leipzig temperature yesterday

Maximum temperature yesterday: 68 °F (at 1:50 PM)
Minimum temperature yesterday: 55 °F (at 4:20 AM)
Average temperature yesterday: 62 °F

Past Weeks' High & Low Weather Summary

 TemperatureHumidityPressure
High77 °F (Sep 29, 2:20 PM)100% (Sep 19, 4:50 AM)30.39 "Hg (Sep 19, 4:50 AM)
Low45 °F (Sep 24, 2:20 AM)44% (Sep 17, 4:50 PM)29.86 "Hg (Sep 24, 4:50 PM)
Average59 °F83%30.09 "Hg
* Reported Sep 17 9:20 AM — Oct 2 9:50 AM, Leipzig, Weather by CustomWeather, © 2014

Note: Actual official high and low records may vary slightly from our data, if they occured in-between our weather recording intervals... More about our weather records

Advertising

Leipzig weather history for previous 24 hours

 ConditionsComfort  
Time TempWeatherWind HumidityBarometerVisibility
9:50 AM
Oct 2
59 °FFog.2 mph94%30.39 "Hg1 mi
9:20 AM57 °FFog.3 mph100%30.39 "Hg1 mi
8:50 AM55 °FFog.2 mph100%30.39 "Hg0 mi
8:20 AM54 °FPartly sunny.2 mph100%30.39 "Hg0 mi
7:50 AM54 °FFog.2 mph100%30.39 "Hg0 mi
7:20 AM54 °FFog.7 mph100%30.39 "Hg0 mi
6:50 AM54 °FFog.6 mph100%30.36 "Hg1 mi
6:20 AM54 °FFog.5 mph100%30.36 "Hg2 mi
5:50 AM55 °FFog.6 mph100%30.36 "Hg2 mi
5:20 AM55 °FFog.5 mph94%30.36 "Hg3 mi
4:50 AM55 °FPassing clouds.6 mph94%30.36 "Hg3 mi
4:20 AM57 °FPassing clouds.2 mph88%30.36 "Hg3 mi
3:50 AM57 °FPassing clouds.2 mph94%30.36 "Hg4 mi
3:20 AM59 °FPassing clouds.2 mph88%30.36 "Hg4 mi
2:50 AM59 °FPassing clouds.1 mph88%30.36 "Hg4 mi
2:20 AM59 °FPartly cloudy.2 mph88%30.36 "Hg5 mi
1:50 AM59 °FPartly cloudy.2 mph88%30.36 "Hg5 mi
1:20 AM59 °FPartly cloudy.6 mph88%30.36 "Hg6 mi
12:50 AM59 °FPassing clouds.2 mph94%30.36 "Hg6 mi
12:20 AM61 °FPassing clouds.3 mph83%30.36 "HgN/A
11:50 PM
Oct 1
61 °FPassing clouds.5 mph83%30.33 "HgN/A
11:20 PM61 °FPassing clouds.5 mph83%30.33 "HgN/A
10:50 PM61 °FPassing clouds.5 mph83%30.33 "HgN/A
10:20 PM61 °FPartly cloudy.5 mph83%30.33 "HgN/A
9:50 PM61 °FPartly cloudy.2 mph83%30.33 "HgN/A
9:20 PM61 °FClear.3 mph88%30.33 "Hg10 mi
8:50 PM63 °FClear.5 mph77%30.33 "Hg10 mi
8:20 PM63 °FClear.3 mph83%30.33 "Hg10 mi
7:50 PM63 °FClear.3 mph77%30.33 "Hg10 mi
7:20 PM63 °FSunny.3 mph77%30.33 "Hg10 mi
6:50 PM64 °FSunny.3 mph78%30.33 "Hg10 mi
6:20 PM66 °FScattered clouds.3 mph73%30.30 "HgN/A
5:50 PM66 °FSunny.3 mph68%30.30 "Hg10 mi
5:20 PM68 °FSunny.5 mph64%30.30 "Hg10 mi
4:50 PM68 °FPassing clouds.2 mph60%30.30 "HgN/A
4:20 PM68 °FPassing clouds.3 mph64%30.30 "HgN/A
3:50 PM68 °FPassing clouds.5 mph69%30.30 "HgN/A
3:20 PM68 °FScattered clouds.5 mph69%30.30 "HgN/A
2:50 PM68 °FScattered clouds.7 mph69%30.30 "HgN/A
2:20 PM68 °FScattered clouds.6 mph64%30.33 "HgN/A
1:50 PM68 °FScattered clouds.6 mph69%30.33 "HgN/A
1:20 PM66 °FScattered clouds.5 mph73%30.33 "Hg5 mi
12:50 PM66 °FBroken clouds.6 mph78%30.33 "Hg4 mi
12:20 PM64 °FBroken clouds.3 mph88%30.33 "Hg4 mi
11:50 AM64 °FFog.5 mph83%30.33 "Hg3 mi
11:20 AM64 °FFog.3 mph83%30.33 "Hg3 mi
10:50 AM63 °FFog.3 mph88%30.33 "Hg2 mi
10:20 AM61 °FFog.1 mph94%30.33 "Hg1 mi
Weather by CustomWeather, © 2014

See weather overviewHow to use our weather pages